星链-6252 (STARLINK-6252 )

导读 | 星芒AI

STARLINK-6252 是 SpaceX Starlink 卫星互联网项目中的一颗低轨卫星,属于第 62 批次发射的星链卫星之一。该卫星运行在约 550 公里的轨道高度,旨在为全球用户提供高速互联网服务。Starlink 项目通过部署大量卫星,构建覆盖全球的宽带网络,尤其服务于偏远和网络基础设施薄弱的地区。STARLINK-6252 采用先进通信技术,支持低延迟、高带宽的数据传输,是 SpaceX 推动全球互联网普及计划的重要组成部分。

基本信息
目录编号:
56555
目录名称:
STARLINK-6252
国际标识:
2023-065BE
轨道中心:
EARTH
卫星名称:
星链-6252
卫星全名:
星链-6252 (STARLINK-6252 )
卫星状态:
在轨 (已飞行952 天)
发射日期:
2023-05-14 UTC
国别 :
美国 (US)
星等 :
--
轨道信息
数据来源 国际轨道数据
星历时间: 2025-12-21T12:45:35+0800
14小时前
查看轨道信息
半长轴: 6937.232km
偏心率: 0.0001143
轨道倾角: 43.004°
近地点辐角 267.854°
升交点赤经 289.338°
平近点角 92.217°
近地点: 558.302km
远地点: 559.888km
周期: 95.838分钟
每日圈数: 15.02531
详细信息
固有亮度:
5
最大亮度:
2.5
卫星平台:
Starlink v1.5
覆盖范围:
全球
运营商:
太空探索技术公司
运营商所在国:
美国
制造商(研发单位):
太空探索技术公司
制造商所在国:
美国
使用方式:
暂无
卫星简介
星链(Starlink)计划是由太空探索技术公司(SpaceX)提出的一个巨型低轨卫星互联网星座项目,计划在2019年至2024年间在太空搭建由约1.2万颗卫星组成的“星链”网络,其中1584颗将部署在地球上空550千米处的近地轨道,并从2020年开始工作。该卫星仍在工作。
2D轨道图
3D轨道图
轨道高度分析图
轨道倾角分析图
轨道综合分析图
查看轨道综合分析图